Regional Weather Roundup
Issued by NWS

Home | Current Version | Previous Version | Graphics & Text | Print | Product List | Glossary On
Versions: 1 2 3 4 5 6 7 8 9 10 11 12 13 14 15 16 17 18 19 20 21 22 23 24 25 26 27 28 29 30 31 32 33 34 35 36 37 38 39 40 41 42 43 44 45 46 47 48 49 50
000
ASUS43 KIND 212209
RWRIN

WEATHER ROUNDUP FOR INDIANA
NATIONAL WEATHER SERVICE INDIANAPOLIS IN
600 PM EDT MON MAY 21 2018

NOTE: "FAIR" INDICATES FEW OR NO CLOUDS BELOW 12,000 FEET WITH NO
SIGNIFICANT WEATHER AND/OR OBSTRUCTIONS TO VISIBILITY.

* - STATION DOES NOT REPORT WEATHER SUCH AS PRECIPITATION OR FOG.

+ - STATION NOT QUALITY CONTROLLED BY THE NATIONAL WEATHER SERVICE.
    USE DATA WITH CAUTION...ESPECIALLY DEWPOINT AND RELATIVE
    HUMIDITY OBSERVATIONS.

INZ001>003-010>013-019-020-212300-
NORTHWEST INDIANA

CITY           SKY/WX    TMP DP  RH WIND       PRES   REMARKS
GARY /AIRPORT/ CLOUDY    72  64  78 SE6       29.99F FOG
KNOX *+        FAIR      68  63  83 SE9       30.01F
LA PORTE +     FAIR      66  62  86 SE12      30.01F
MICHIGAN CITY+ PTSUNNY   64  59  82 SE5       30.01F
MONTICELLO +   CLOUDY    72  68  88 CALM      30.00F
RENSSELAER +   PTSUNNY   73  61  64 S10       29.99F
VALPARAISO     CLOUDY    70  64  81 E12       30.00F

$$

LMZ046-743>745-212300-
SOUTHERN LAKE MICHIGAN

STATION/POSITION TIME  TEMP    WIND        PRES    WAVE
                       AIR SEA DIR/SP/G            HT
                 (UTC) (F)     (DEG/KT/KT) (MB)    (FT)
BURNS HARBOR     2140   68      CALM  /  5 1015.9F
MICHIGAN CITY    2140   65     110/  9/ 12   N/A
5NW MICH CITY    2200   59 54  140/  6/  8   N/A     1

$$

INZ004-005-014>016-021>024-212300-
NORTH CENTRAL INDIANA

CITY           SKY/WX    TMP DP  RH WIND       PRES   REMARKS
ELKHART        PTSUNNY   61  57  88 E9        30.04F
GOSHEN         CLOUDY    62  59  90 E8        30.03F
LOGANSPORT +   FAIR      70  66  88 E6        30.02F FOG
ROCHESTER +    FAIR      66  63  88 SE7       30.03F
SOUTH BEND     PTSUNNY   62  57  83 E12       30.04F
WARSAW +       PTSUNNY   61  61 100 E7        30.04F

$$

INZ006>009-017-018-025>027-212300-
NORTHEAST INDIANA

CITY           SKY/WX    TMP DP  RH WIND       PRES   REMARKS
ANGOLA *+      FAIR      59  55  88 E14       30.06F
AUBURN +       FAIR      61  59  94 NE8       30.06F
FORT WAYNE     PTSUNNY   65  62  90 NE13      30.04F
HUNTINGTON +   FAIR      65  63  92 NE6       30.03F

$$

INZ028-029-035-036-043>045-051>053-212300-
WEST CENTRAL INDIANA

CITY           SKY/WX    TMP DP  RH WIND       PRES   REMARKS
CRAWFORDSVL +  FAIR      77  65  66 SW8       30.01S
GREENCASTLE +  FAIR      77  63  61 CALM      30.03R
LAFAYETTE      PTSUNNY   77  65  66 SW7       29.99F
TERRE HAUTE    FAIR      81  62  52 W12       30.01R

$$

INZ030>032-037>040-046>048-054>057-064-065-212300-
CENTRAL INDIANA

CITY           SKY/WX    TMP DP  RH WIND       PRES   REMARKS
ANDERSON       LGT RAIN  74  69  86 CALM      30.02
COLUMBUS       LGT RAIN  73  64  73 W12       30.04R
FISHERS *+     FAIR      79  68  69 CALM      30.01F
FRANKFORT +    CLOUDY    79  68  69 CALM      30.03F
GREENWOOD *+   CLOUDY    72  70  93 CALM      30.03S
INDIANAPOLIS   CLOUDY    77  68  73 SW8       30.01S
-EAGLE CREEK   FAIR      80  66  62 VRB3      30.00F
KOKOMO +       PTSUNNY   74  69  85 E7        30.03F
MARION +       FAIR      73  67  82 CALM      30.02F HAZE
MT COMFORT *+  FAIR      75  72  88 SW3       30.02F
SHELBYVILLE    TSTM      73  66  78 SE12      30.03R
ZIONSVILLE +     N/A     77  64  64 CALM      30.03S

$$

INZ033-034-041-042-049-050-058-059-212300-
EAST CENTRAL INDIANA

CITY           SKY/WX    TMP DP  RH WIND       PRES   REMARKS
MUNCIE         PTSUNNY   80  65  59 N7        30.01F
RICHMOND +     FAIR      79  68  69 SW6       30.02S

$$

INZ060-061-067>069-081>083-085>088-212300-
SOUTHWEST INDIANA

CITY           SKY/WX    TMP DP  RH WIND       PRES   REMARKS
EVANSVILLE     PTSUNNY   73  70  90 SE5       30.04R
HUNTINGBURG +  TSTM      69  65  86 W12       30.05R FOG
WASHINGTON +   DRIZZLE   73  68  82 E9        30.03R

$$

INZ062-063-066-070>080-084-089>092-212300-
SOUTH CENTRAL AND SOUTHEAST INDIANA

CITY           SKY/WX    TMP DP  RH WIND       PRES   REMARKS
BATESVILLE +   MOSUNNY   77  70  78 VRB5      30.02R
BEDFORD +      LGT RAIN  70  64  83 CALM      30.02R
BLOOMINGTON    LGT RAIN  70  69  97 S6        30.05R
FRENCH LICK *+ CLOUDY    68 N/A N/A W3        30.04R
MADISON *+     FAIR      82  63  51 S8        30.03S
NORTH VERNON + FAIR      79  64  61 NW5       30.00R
SEYMOUR +      PTSUNNY   77  64  65 NW14      30.02R

$$




USA.gov is the U.S. government's official web portal to all federal, state and local government web resources and services.